Temperature
22 23 22 21 21 20 20 19 19 19 19 19 19 18 18 18 18 18 17 17 17 16 16 16 16 16 16 16 16 15 15 15 15 15 14 14 14 14 13 13 14 14 14
22 22 22 21 20 20 19 19 19 19 19 18 18 18 18 18 17 17 17 17 16 16 16 16 16 16 15 15 15 15 15 15 14 14 14 14 13 13 13 13 13 13 13
22 21 21 20 19 19 19 19 18 18 18 18 18 18 17 17 17 17 17 16 16 16 16 15 15 15 15 15 15 15 15 14 14 13 13 13 13 13 13 13 13 13 13
21 21 20 19 19 18 18 18 18 18 18 18 17 17 17 17 17 16 16 16 16 15 15 15 15 15 15 15 15 15 14 13 13 12 12 12 13 13 13 12 12 12 12
20 20 20 19 18 18 17 17 17 17 17 17 17 17 17 16 16 16 16 16 15 15 15 15 15 14 15 15 14 14 14 13 12 12 12 12 12 12 12 12 12 12 12
19 19 19 18 18 17 17 17 17 17 17 17 17 17 16 16 16 16 15 15 15 15 15 15 14 15 14 14 14 14 13 12 12 12 12 12 12 12 12 12 12 12 12
19 19 18 18 17 17 17 17 17 17 17 17 16 16 16 16 16 15 15 15 15 15 14 14 14 14 14 14 14 13 13 12 12 12 12 12 12 11 11 11 12 11 11
19 18 18 18 17 17 17 17 16 16 16 16 16 16 16 16 15 15 15 15 15 14 14 14 14 14 14 14 13 13 12 12 11 11 12 12 11 11 11 11 11 11 11
18 18 17 17 17 17 16 16 16 16 16 16 16 16 16 15 15 15 15 14 14 14 14 14 13 13 13 13 13 13 12 12 11 11 11 11 11 11 11 11 11 11 11
17 17 17 17 16 16 16 16 16 16 16 16 16 16 15 15 15 15 14 14 14 13 13 13 13 13 13 13 13 12 12 11 11 11 11 11 11 10 10 10 11 11 11
17 17 17 16 16 16 16 16 16 16 16 16 16 15 15 15 14 14 14 14 13 13 13 13 13 13 13 13 12 12 11 11 11 11 11 11 10 10 10 10 10 10 10
16 16 16 16 16 16 16 16 16 16 16 15 15 15 15 14 14 14 14 13 13 13 12 12 12 12 12 12 12 11 11 11 11 11 11 11 10 10 10 10 10 10 10
15 15 16 16 15 15 15 16 15 15 15 15 15 15 15 14 14 13 13 13 13 12 12 12 12 12 12 12 12 11 11 11 10 11 11 10 10 10 10 10 10 10 10
14 15 15 15 15 15 15 15 15 15 15 15 15 15 14 14 13 13 13 13 12 12 12 12 12 11 11 11 11 11 11 10 10 10 10 10 10 10 10 10 10 10 10
14 14 15 15 15 15 15 15 15 15 15 15 15 14 14 14 14 13 13 13 12 12 12 12 11 11 11 11 11 11 10 10 10 10 10 10 10 10 10 10 9 9 9
13 14 14 14 14 14 14 14 15 15 15 14 14 14 14 14 14 13 13 12 12 12 11 11 11 11 11 11 10 10 10 10 10 10 10 10 10 10 10 9 9 9 9
13 13 13 14 14 14 14 14 14 14 14 14 14 14 14 14 14 13 13 12 12 12 11 11 11 10 10 10 10 10 10 10 10 10 10 10 10 10 9 9 9 9 9
12 13 13 13 13 13 14 14 14 14 14 14 14 14 14 14 13 13 13 12 12 11 11 11 11 10 10 10 10 10 10 10 10 10 10 10 10 10 10 10 10 10 9
12 12 12 13 13 13 13 13 13 14 14 14 14 14 14 14 13 13 13 13 12 11 11 11 11 11 11 10 10 10 10 10 10 10 10 9 9 10 10 10 10 10 10
11 12 12 12 12 12 13 13 13 13 13 14 13 13 13 13 13 13 13 12 12 11 11 11 11 10 10 10 10 10 10 10 10 10 10 9 9 10 10 10 10 10 10
11 11 11 11 11 12 12 12 13 13 13 13 13 13 13 13 13 13 13 12 12 12 11 11 11 10 10 10 9 9 9 9 10 10 10 10 10 10 10 10 10 10 10
10 10 10 11 11 11 12 12 12 13 13 13 13 13 13 13 13 13 13 13 12 12 11 11 11 10 10 10 10 9 9 9 9 9 10 10 10 10 10 10 10 10 10
10 10 10 10 11 11 11 12 12 12 12 12 13 13 13 13 13 13 13 13 12 12 12 11 11 11 10 10 10 10 9 9 10 10 10 10 10 10 10 10 10 10 10
9 9 9 10 10 11 11 11 12 12 12 12 12 13 12 12 13 13 13 13 12 12 12 11 11 11 11 10 10 10 10 10 10 9 10 10 10 10 10 10 10 10 10
8 9 9 9 10 11 11 11 12 12 12 12 12 12 12 12 12 13 13 12 12 12 12 11 11 11 11 11 11 10 10 10 11 10 10 10 10 10 10 10 10 10 10
8 8 9 9 10 10 10 11 11 12 12 12 12 12 12 12 12 12 12 12 12 12 12 12 12 11 11 11 11 11 11 11 11 11 10 10 10 10 10 10 10 10 10
Wind_Speed
8 15 21 21 21 21 21 21 22 21 20 20 20 19 19 19 19 20 19 19 19 18 18 18 18 17 18 18 18 18 17 17 17 16 16 15 15 15 15 15 16 15 17
11 16 22 20 21 21 21 21 21 21 21 20 20 20 20 20 20 20 19 19 19 18 18 18 18 18 18 18 18 17 17 16 15 16 16 15 15 16 17 17 16 15 17
12 16 20 20 20 20 20 21 21 21 22 21 21 20 21 21 20 20 20 19 19 19 18 18 18 18 18 17 17 16 15 14 12 12 14 14 15 16 16 16 16 16 16
10 14 18 20 20 20 20 20 21 21 22 22 21 21 21 21 21 20 20 19 19 19 19 18 18 18 17 17 16 15 14 11 8 9 12 14 13 15 16 16 16 16 16
8 12 17 21 20 21 20 20 21 22 22 22 22 21 21 21 21 20 20 20 19 19 19 19 18 18 17 16 16 14 12 9 8 11 15 15 13 14 15 15 15 15 16
5 9 17 21 20 20 21 21 21 22 23 23 23 22 22 22 21 21 20 20 20 20 19 19 18 18 17 16 15 13 10 7 8 13 15 14 12 14 14 14 14 14 15
2 6 15 21 21 20 20 21 22 23 23 24 23 23 23 22 21 21 21 21 20 20 20 19 18 18 17 16 14 12 7 6 11 14 14 13 12 13 13 13 14 14 14
2 5 12 20 21 21 21 21 22 23 23 24 24 24 23 23 22 22 21 21 21 20 20 19 18 18 16 15 13 10 6 6 11 13 14 13 12 12 13 13 13 13 13
2 5 8 14 18 20 21 21 22 23 23 24 24 24 23 23 22 22 22 21 21 21 20 19 19 18 16 15 12 8 5 6 9 12 13 11 11 12 12 13 13 12 12
2 4 8 9 13 15 17 20 21 22 23 23 23 23 22 22 22 22 22 21 21 21 20 19 18 17 15 14 11 7 4 6 9 13 12 11 11 11 12 12 12 11 11
4 3 7 8 10 12 14 18 20 21 22 22 21 22 22 19 19 19 20 21 22 21 20 19 18 17 15 13 10 7 3 5 11 12 12 11 11 11 11 11 10 10 10
5 5 6 8 8 10 12 13 13 16 17 18 18 20 18 17 17 18 21 21 21 21 20 19 18 17 14 11 9 7 4 7 11 11 11 11 10 10 9 9 8 8 8
8 7 8 9 9 9 9 10 9 10 12 15 18 19 17 15 14 15 14 16 18 19 16 17 15 12 11 10 9 7 5 8 10 11 11 10 9 9 8 8 7 6 6
10 10 9 9 10 9 8 10 10 9 10 10 15 19 14 10 10 11 9 11 13 12 12 12 9 9 11 11 10 6 6 7 10 11 11 10 9 8 7 7 6 6 5
13 11 10 9 11 10 9 9 11 11 11 13 14 16 16 11 12 11 10 11 11 12 11 8 7 7 7 8 7 7 6 8 10 11 10 10 9 7 7 6 6 5 4
13 11 10 10 11 11 10 9 10 11 11 12 12 15 17 14 12 11 11 10 10 12 12 9 7 6 5 5 5 6 7 8 9 11 11 10 8 7 7 6 5 5 4
14 12 11 11 10 12 12 11 10 11 11 11 12 16 17 16 14 12 11 10 9 12 12 8 8 6 5 5 5 5 5 6 8 10 11 11 9 7 7 6 6 5 5
12 11 10 11 10 11 11 11 10 11 11 11 12 14 17 18 17 12 11 10 11 11 8 7 7 6 6 5 4 4 3 4 5 7 9 10 11 9 8 7 7 6 6
11 10 10 10 10 10 11 10 11 11 12 11 12 12 15 18 19 13 11 10 13 9 7 7 7 7 7 6 5 4 3 3 3 5 5 7 8 9 9 9 8 7 7
9 9 9 9 10 9 9 9 9 11 11 11 11 13 16 17 19 14 12 13 12 10 8 8 8 7 6 6 6 4 3 3 2 3 4 5 7 8 9 9 9 9 9
7 7 9 9 9 9 9 10 10 11 11 11 12 14 17 17 19 16 13 14 12 10 10 10 8 9 6 5 5 3 1 3 4 4 4 4 5 8 9 9 9 9 9
8 8 9 9 9 9 10 10 9 10 10 11 11 13 16 17 18 17 16 14 13 11 12 11 9 7 6 6 6 5 2 2 4 5 4 4 5 6 7 10 10 10 10
7 8 9 9 9 9 10 8 8 9 9 9 12 13 14 16 17 16 17 15 14 13 12 12 11 9 8 7 6 5 4 4 3 3 5 5 5 5 5 7 10 11 11
6 6 8 8 7 7 7 9 11 11 11 11 11 12 14 16 17 17 17 16 15 12 12 12 10 8 10 9 6 4 3 3 4 2 3 5 6 6 6 5 7 10 11
6 6 6 7 6 5 5 8 11 11 8 9 11 13 14 14 15 17 17 15 15 13 13 13 11 10 8 8 6 4 3 1 2 3 3 3 4 5 5 5 5 7 10
6 6 5 6 6 5 5 7 9 11 11 13 14 14 13 12 13 16 17 15 15 13 14 13 12 12 9 8 7 5 4 4 4 4 3 4 4 4 4 4 4 5 8
Wind_Direction
129 147 161 165 165 163 162 160 157 155 153 152 149 146 143 139 136 133 130 128 126 124 123 120 115 111 107 104 101 98 94 92 91 90 87 86 85 83 79 79 80 74 76
134 147 161 165 167 166 165 163 160 157 156 154 152 150 148 144 140 137 135 133 130 128 126 122 117 115 112 108 105 102 99 98 99 97 90 85 85 84 79 78 81 81 78
132 146 161 165 169 169 168 165 163 160 158 156 155 153 150 147 144 142 139 136 134 130 127 123 120 117 114 110 108 106 105 105 107 104 97 91 86 85 83 81 81 80 79
133 144 161 167 171 171 170 168 165 163 161 158 156 154 152 150 147 145 141 138 135 131 127 124 123 120 116 114 112 110 110 110 105 99 96 92 87 88 88 86 83 81 80
132 148 160 167 173 173 173 171 169 166 163 159 157 156 154 152 150 147 143 139 135 132 129 127 126 123 120 118 116 116 116 109 91 87 90 89 88 91 90 88 85 82 81
131 149 158 166 174 175 175 174 171 168 164 161 160 159 157 154 152 148 144 140 137 135 133 132 130 127 124 122 120 121 119 101 87 89 92 93 92 94 93 90 87 86 83
139 150 161 169 174 176 177 176 173 170 167 164 162 160 158 155 152 148 144 142 140 139 138 135 133 130 127 125 124 123 110 93 96 92 88 90 95 97 95 92 90 88 86
167 153 162 173 175 178 179 178 174 171 169 166 164 162 159 156 153 150 147 145 144 143 140 138 136 134 130 128 127 123 100 88 101 99 96 96 100 98 96 93 91 90 89
215 164 166 176 178 179 179 179 175 172 171 168 166 162 159 156 155 153 149 147 146 144 142 140 138 135 133 131 130 126 99 82 94 102 101 99 103 102 99 97 93 91 90
268 186 176 181 182 181 180 180 176 174 172 168 165 160 156 155 155 153 150 149 148 146 144 142 138 136 135 135 136 136 119 94 100 99 102 106 108 107 104 99 96 94 93
266 221 190 189 190 183 181 182 176 174 170 166 162 155 151 153 153 153 149 149 148 147 145 143 139 137 136 139 146 154 157 122 106 99 105 116 115 112 108 105 102 101 98
247 242 212 199 198 191 184 177 176 176 170 167 163 159 157 156 156 153 148 148 147 146 145 144 142 142 141 147 160 176 183 132 112 107 114 121 120 118 113 114 112 108 104
256 233 227 208 199 198 189 182 180 175 171 170 168 167 161 154 149 144 147 144 145 145 143 144 147 160 158 156 170 192 172 125 115 113 121 124 127 125 121 121 119 116 111
260 246 226 215 201 199 197 189 184 180 178 175 173 170 161 156 152 152 151 151 153 153 148 156 170 170 151 159 176 168 134 116 115 115 123 127 132 136 135 134 134 129 124
252 252 232 218 206 200 199 194 187 183 182 176 174 171 163 158 158 157 156 158 160 155 158 167 169 155 151 168 168 149 135 127 126 124 128 129 133 143 148 147 148 149 146
248 247 242 225 213 202 200 197 191 186 181 176 175 171 164 161 159 160 157 160 160 157 163 165 162 153 151 152 154 147 143 138 137 136 141 141 143 151 156 161 167 173 175
252 245 241 230 218 207 201 200 195 188 181 176 177 170 166 161 159 159 157 159 158 158 159 163 157 148 144 144 153 150 144 145 147 150 154 156 158 164 171 177 184 193 200
249 244 243 238 222 212 205 202 195 188 183 176 175 172 168 162 160 158 156 159 157 157 159 159 151 145 145 151 155 150 139 142 156 162 162 164 168 171 179 189 196 207 217
249 243 240 238 220 217 209 207 199 189 185 176 173 175 171 164 161 159 158 158 157 156 158 160 152 150 154 160 155 146 144 154 171 164 169 172 171 169 174 187 198 212 222
253 241 238 243 227 220 213 209 200 188 184 177 176 176 171 167 163 161 158 159 158 158 160 160 156 156 157 156 150 146 154 170 173 181 188 172 172 178 184 191 200 212 224
263 259 247 243 232 220 211 205 196 186 182 180 177 175 172 169 167 163 162 162 162 163 164 162 158 158 157 147 129 130 178 195 197 202 194 180 184 192 199 202 206 211 218
251 253 253 245 233 228 218 204 197 186 181 183 175 175 173 172 170 166 164 164 164 164 165 167 159 156 164 156 149 145 167 228 241 210 191 192 197 193 198 209 215 216 216
252 247 249 249 233 231 223 200 191 179 174 181 178 175 177 174 172 168 166 164 166 167 170 170 167 161 166 171 170 162 162 193 199 217 205 198 200 202 206 210 215 220 221
278 262 252 256 241 236 223 202 190 185 185 185 179 175 175 176 172 170 167 166 168 169 170 173 168 163 163 173 189 202 179 151 150 178 227 213 207 208 209 210 211 217 220
303 282 263 263 254 243 232 212 193 186 185 175 174 174 178 179 173 171 168 169 171 171 171 172 169 168 170 174 176 176 190 163 152 152 197 216 221 222 211 207 204 212 218
327 314 271 260 258 247 238 221 193 181 181 177 174 177 179 178 174 174 171 172 173 172 173 174 173 173 176 176 176 172 166 165 184 175 190 200 214 228 214 209 205 209 213
Height
1463 1464 1466 1468 1471 1474 1477 1480 1484 1487 1490 1493 1496 1498 1501 1504 1506 1508 1511 1513 1515 1517 1519 1520 1521 1523 1524 1525 1526 1526 1527 1528 1528 1529 1529 1529 1530 1530 1530 1531 1531 1531 1531
1462 1463 1466 1468 1471 1473 1477 1480 1483 1486 1490 1493 1495 1498 1501 1504 1506 1508 1511 1513 1515 1517 1519 1520 1522 1523 1524 1525 1526 1527 1528 1529 1529 1529 1530 1530 1530 1531 1531 1532 1532 1532 1532
1461 1462 1465 1467 1470 1473 1476 1480 1483 1486 1489 1492 1495 1498 1501 1503 1506 1508 1510 1513 1515 1517 1519 1521 1522 1523 1524 1525 1526 1527 1528 1529 1530 1530 1531 1531 1532 1532 1532 1533 1533 1533 1533
1462 1462 1464 1467 1470 1473 1476 1479 1482 1485 1488 1491 1495 1497 1500 1503 1506 1508 1510 1512 1515 1517 1519 1520 1522 1523 1524 1525 1526 1528 1529 1530 1531 1532 1532 1532 1533 1533 1533 1534 1534 1534 1534
1462 1462 1464 1466 1469 1472 1475 1479 1482 1485 1488 1491 1494 1497 1500 1503 1505 1508 1510 1512 1514 1516 1518 1520 1521 1523 1524 1525 1527 1528 1529 1531 1532 1532 1532 1533 1533 1534 1534 1535 1535 1535 1535
1462 1462 1463 1466 1468 1471 1474 1478 1481 1484 1487 1490 1493 1496 1499 1502 1505 1507 1509 1512 1514 1516 1518 1520 1521 1522 1524 1525 1527 1528 1530 1531 1532 1533 1533 1534 1534 1535 1535 1535 1536 1536 1536
1461 1462 1463 1465 1467 1470 1473 1476 1479 1483 1486 1489 1492 1495 1498 1501 1504 1506 1509 1511 1513 1515 1517 1519 1521 1522 1524 1525 1527 1529 1530 1531 1532 1533 1533 1534 1535 1535 1536 1536 1536 1537 1537
1459 1460 1461 1464 1466 1469 1472 1475 1478 1481 1484 1488 1491 1494 1497 1500 1502 1505 1508 1510 1512 1515 1517 1518 1520 1522 1524 1525 1527 1529 1530 1531 1532 1533 1533 1534 1535 1536 1536 1537 1537 1537 1538
1458 1458 1459 1462 1464 1467 1470 1473 1476 1479 1482 1486 1489 1492 1495 1498 1501 1504 1506 1509 1512 1514 1516 1518 1520 1522 1523 1525 1527 1529 1530 1532 1532 1533 1534 1535 1536 1536 1537 1537 1538 1538 1538
1455 1456 1457 1460 1462 1464 1467 1471 1474 1477 1480 1484 1487 1490 1493 1496 1499 1502 1505 1508 1510 1513 1515 1517 1519 1521 1523 1525 1527 1529 1530 1532 1533 1533 1534 1535 1536 1537 1537 1538 1538 1538 1538
1452 1453 1455 1457 1459 1461 1464 1467 1471 1474 1478 1481 1485 1488 1492 1495 1497 1500 1503 1506 1509 1512 1514 1516 1518 1520 1522 1525 1527 1529 1530 1531 1533 1533 1534 1535 1536 1537 1537 1538 1538 1538 1539
1448 1449 1451 1453 1455 1458 1461 1463 1467 1471 1474 1478 1481 1485 1489 1492 1495 1498 1501 1504 1507 1510 1513 1515 1517 1520 1522 1524 1526 1528 1530 1531 1532 1533 1534 1535 1536 1537 1537 1538 1538 1539 1539
1445 1445 1447 1449 1451 1453 1456 1459 1462 1466 1470 1474 1478 1481 1485 1489 1492 1495 1498 1502 1505 1508 1511 1514 1516 1519 1521 1523 1526 1528 1530 1531 1532 1532 1534 1535 1536 1537 1537 1538 1538 1538 1538
1440 1441 1442 1444 1446 1448 1451 1454 1457 1461 1465 1469 1473 1477 1481 1484 1488 1491 1495 1499 1502 1505 1508 1512 1515 1518 1520 1523 1525 1527 1529 1530 1531 1532 1533 1534 1535 1536 1537 1537 1537 1538 1538
1435 1435 1436 1438 1441 1443 1446 1449 1452 1456 1460 1464 1468 1473 1476 1480 1484 1488 1492 1496 1500 1503 1506 1510 1513 1516 1519 1522 1524 1526 1528 1529 1530 1531 1532 1533 1535 1536 1536 1537 1537 1537 1537
1429 1429 1431 1433 1435 1438 1440 1443 1446 1451 1455 1459 1463 1468 1472 1476 1480 1485 1489 1493 1497 1500 1504 1508 1511 1514 1518 1520 1523 1525 1527 1528 1529 1530 1532 1533 1534 1534 1535 1536 1536 1536 1536
1423 1424 1425 1427 1429 1431 1434 1437 1441 1445 1449 1453 1458 1462 1466 1471 1476 1481 1485 1490 1494 1498 1502 1506 1510 1513 1516 1519 1521 1524 1525 1527 1528 1529 1530 1531 1532 1533 1534 1534 1535 1535 1535
1416 1417 1418 1421 1422 1425 1428 1431 1434 1439 1443 1447 1452 1456 1461 1466 1471 1477 1481 1486 1491 1495 1499 1503 1507 1510 1513 1516 1519 1522 1524 1525 1527 1528 1529 1530 1531 1531 1532 1533 1533 1533 1534
1409 1411 1412 1414 1416 1419 1422 1425 1428 1431 1437 1441 1446 1452 1456 1461 1466 1472 1477 1482 1487 1491 1495 1500 1504 1507 1511 1514 1517 1520 1522 1524 1525 1526 1527 1528 1529 1529 1530 1531 1531 1531 1532
1403 1405 1406 1408 1410 1412 1415 1418 1421 1424 1430 1435 1440 1445 1451 1456 1460 1467 1472 1478 1482 1487 1492 1496 1500 1505 1508 1512 1515 1518 1520 1522 1523 1524 1526 1526 1527 1527 1528 1528 1529 1529 1529
1397 1398 1400 1402 1404 1406 1409 1410 1412 1416 1422 1428 1434 1439 1445 1450 1455 1461 1467 1473 1478 1482 1487 1492 1497 1501 1505 1509 1513 1516 1518 1520 1521 1522 1523 1524 1524 1525 1526 1526 1527 1527 1527
1392 1393 1395 1396 1398 1400 1402 1404 1405 1410 1416 1421 1427 1433 1438 1444 1449 1455 1461 1467 1472 1478 1483 1488 1492 1497 1501 1505 1508 1512 1516 1518 1518 1519 1520 1521 1522 1522 1523 1524 1524 1524 1524
1387 1388 1390 1391 1392 1394 1397 1399 1401 1405 1410 1415 1420 1426 1433 1438 1444 1450 1455 1462 1468 1473 1478 1483 1488 1492 1496 1501 1505 1508 1511 1512 1515 1516 1517 1518 1519 1520 1520 1521 1521 1521 1521
1383 1384 1385 1386 1387 1388 1390 1391 1393 1396 1401 1407 1413 1420 1428 1433 1439 1445 1450 1457 1463 1468 1473 1478 1483 1488 1492 1496 1500 1503 1507 1508 1510 1512 1514 1515 1516 1517 1518 1518 1518 1519 1519
1380 1380 1380 1381 1382 1383 1384 1386 1388 1392 1398 1404 1410 1414 1422 1428 1433 1439 1445 1452 1458 1463 1469 1474 1479 1484 1488 1491 1494 1499 1502 1504 1506 1507 1509 1511 1513 1514 1515 1515 1515 1515 1515
1376 1376 1377 1377 1377 1379 1381 1382 1383 1387 1393 1399 1403 1409 1416 1422 1428 1434 1440 1447 1453 1458 1464 1469 1474 1479 1483 1487 1491 1494 1497 1500 1502 1504 1506 1507 1509 1511 1512 1512 1512 1512 1512